Date String (YYYY-MM-DD hh:mm:ss) UTC,Instrument flags,Ambient pressure (hPa),Sample flow (lpm),Bypass flow (lpm),Sample temperature (°C),Ambient temperature (°C),ASC tube jacket temperature (°C),LED temperature (°C),Box temperature (°C),Sample RH (%),Span deviation,Mass concentration (μg/m³),Mass concentration (μg/m³),Mass concentration (μg/m³)
DateTimeUTC,F1_M11,P_M11,Q1_M11,Q2_M11,T1_M11,T2_M11,T3_M11,T4_M11,T5_M11,U1_M11,ZSPAN_M11,X2_M11,X0_M11,X1_M11
2023-04-12 18:00:00,,0824.4,5.00,0.00,30.4,28.9,00.0,38.7,31.9,09.3,0000.0,0003.92,0013.75,0002.57
2023-04-12 18:01:00,,0824.3,5.00,0.00,30.4,29.0,00.0,38.7,32.0,09.9,0000.0,0003.87,0013.93,0002.55
2023-04-12 18:02:00,,0824.3,5.01,0.00,30.4,29.0,00.0,38.7,32.0,10.0,0000.0,0003.84,0013.86,0002.53
2023-04-12 18:03:00,,0824.3,5.00,0.00,30.4,29.0,00.0,38.7,32.0,10.3,0000.0,0003.89,0012.34,0002.53
2023-04-12 18:04:00,,0824.3,5.00,0.00,30.4,29.1,00.0,38.7,32.0,10.2,0000.0,0003.89,0012.08,0002.53
2023-04-12 18:05:00,,0824.2,4.99,0.00,30.5,29.1,00.0,38.8,32.1,08.9,0000.0,0003.86,0011.98,0002.51
2023-04-12 18:06:00,,0824.2,5.00,0.00,30.5,29.1,00.0,38.8,32.1,08.6,0000.0,0003.79,0011.68,0002.49
2023-04-12 18:07:00,,0824.2,4.99,0.00,30.5,29.2,00.0,38.8,32.1,08.7,0000.0,0003.76,0011.81,0002.48
2023-04-12 18:08:00,,0824.1,5.00,0.00,30.5,29.2,00.0,38.8,32.1,08.9,0000.0,0003.68,0011.92,0002.44
2023-04-12 18:09:00,,0824.1,5.00,0.00,30.5,29.2,00.0,38.8,32.1,09.0,0000.0,0003.65,0011.89,0002.42
2023-04-12 18:10:00,,0824.1,4.99,0.00,30.6,28.8,00.0,38.8,32.1,08.9,0000.0,0003.69,0011.63,0002.45
2023-04-12 18:11:00,,0824.1,5.01,0.00,30.5,27.1,00.0,38.7,31.8,09.3,0000.0,0003.75,0011.20,0002.49
2023-04-12 18:12:00,,0824.0,5.00,0.00,30.4,26.2,00.0,38.6,31.6,09.4,0000.0,0003.78,0010.51,0002.49
2023-04-12 18:13:00,,0824.0,5.01,0.00,30.3,26.3,00.0,38.6,31.5,09.4,0000.0,0003.76,0010.57,0002.48
2023-04-12 18:14:00,,0824.0,5.00,0.00,30.3,26.6,00.0,38.6,31.5,09.5,0000.0,0003.72,0010.95,0002.48
2023-04-12 18:15:00,,0824.0,5.00,0.00,30.2,26.9,00.0,38.6,31.4,09.4,0000.0,0003.69,0010.73,0002.47
2023-04-12 18:16:00,,0823.9,5.00,0.00,30.2,27.3,00.0,38.6,31.4,09.3,0000.0,0003.72,0010.98,0002.48
2023-04-12 18:17:00,,0823.9,5.00,0.00,30.2,27.5,00.0,38.6,31.5,09.0,0000.0,0003.77,0011.57,0002.50
2023-04-12 18:18:00,,0823.9,5.00,0.00,30.2,27.8,00.0,38.6,31.5,09.2,0000.0,0003.81,0012.20,0002.51
2023-04-12 18:19:00,,0823.8,4.99,0.00,30.2,28.0,00.0,38.6,31.5,09.3,0000.0,0003.83,0012.12,0002.53
2023-04-12 18:20:00,,0823.8,5.00,0.00,30.2,28.1,00.0,38.6,31.5,09.0,0000.0,0003.78,0011.77,0002.52
2023-04-12 18:21:00,,0823.9,5.00,0.00,30.2,28.3,00.0,38.6,31.6,08.8,0000.0,0003.73,0011.70,0002.50
2023-04-12 18:22:00,,0823.8,5.00,0.00,30.2,28.4,00.0,38.6,31.6,08.8,0000.0,0003.66,0011.60,0002.46
2023-04-12 18:23:00,,0823.8,5.01,0.00,30.2,28.5,00.0,38.6,31.7,09.2,0000.0,0003.63,0011.85,0002.45
2023-04-12 18:24:00,,0823.8,5.01,0.00,30.2,28.6,00.0,38.6,31.8,08.7,0000.0,0003.61,0011.60,0002.43
2023-04-12 18:25:00,,0823.8,5.00,0.00,30.2,28.7,00.0,38.6,31.8,08.7,0000.0,0003.59,0011.39,0002.41
2023-04-12 18:26:00,,0823.8,5.00,0.00,30.2,28.8,00.0,38.6,31.8,08.5,0000.0,0003.59,0011.44,0002.40
2023-04-12 18:27:00,,0823.8,4.99,0.00,30.3,28.8,00.0,38.6,31.9,08.7,0000.0,0003.56,0011.13,0002.39
2023-04-12 18:28:00,,0823.7,4.99,0.00,30.3,28.9,00.0,38.6,31.9,09.0,0000.0,0003.54,0010.98,0002.36
2023-04-12 18:29:00,,0823.7,5.00,0.00,30.3,28.9,00.0,38.6,32.0,08.8,0000.0,0003.55,0010.88,0002.35
2023-04-12 18:30:00,,0823.7,5.00,0.00,30.3,29.0,00.0,38.7,31.9,09.3,0000.0,0003.52,0011.11,0002.34
2023-04-12 18:31:00,,0823.6,5.00,0.00,30.4,29.0,00.0,38.7,31.9,08.8,0000.0,0003.52,0011.08,0002.35
2023-04-12 18:32:00,,0823.6,5.01,0.00,30.4,29.1,00.0,38.7,32.0,08.8,0000.0,0003.51,0011.01,0002.35
2023-04-12 18:33:00,,0823.5,5.00,0.00,30.4,29.1,00.0,38.7,32.0,08.6,0000.0,0003.56,0011.38,0002.35
2023-04-12 18:34:00,,0823.5,5.00,0.00,30.4,29.1,00.0,38.7,32.0,08.6,0000.0,0003.56,0011.53,0002.34
2023-04-12 18:35:00,,0823.5,5.00,0.00,30.5,29.2,00.0,38.7,32.1,08.5,0000.0,0003.55,0011.59,0002.33
2023-04-12 18:36:00,,0823.5,4.99,0.00,30.5,28.9,00.0,38.7,32.1,08.4,0000.0,0003.54,0011.57,0002.33
2023-04-12 18:37:00,,0823.4,5.00,0.00,30.4,27.3,00.0,38.7,31.8,08.5,0000.0,0003.55,0011.65,0002.35
2023-04-12 18:38:00,,0823.4,5.00,0.00,30.3,26.2,00.0,38.6,31.6,08.5,0000.0,0003.56,0011.84,0002.35
2023-04-12 18:39:00,,0823.4,5.01,0.00,30.3,26.3,00.0,38.5,31.5,08.7,0000.0,0003.56,0011.56,0002.37
2023-04-12 18:40:00,,0823.4,5.00,0.00,30.2,26.6,00.0,38.5,31.4,08.7,0000.0,0003.53,0011.00,0002.38
2023-04-12 18:41:00,,0823.4,5.00,0.00,30.1,26.9,00.0,38.5,31.4,08.8,0000.0,0003.55,0010.74,0002.37
2023-04-12 18:42:00,,0823.4,5.01,0.00,30.1,27.2,00.0,38.5,31.4,08.7,0000.0,0003.57,0010.65,0002.38
2023-04-12 18:43:00,,0823.4,4.99,0.00,30.1,27.5,00.0,38.5,31.5,08.6,0000.0,0003.62,0010.41,0002.40
2023-04-12 18:44:00,,0823.4,5.00,0.00,30.1,27.8,00.0,38.5,31.5,08.8,0000.0,0003.67,0010.53,0002.42
2023-04-12 18:45:00,,0823.3,5.00,0.00,30.1,28.0,00.0,38.5,31.6,08.7,0000.0,0003.66,0011.05,0002.44
2023-04-12 18:46:00,,0823.4,5.01,0.00,30.1,28.1,00.0,38.5,31.6,08.8,0000.0,0003.70,0010.88,0002.46
2023-04-12 18:47:00,,0823.3,5.00,0.00,30.1,28.3,00.0,38.5,31.7,09.0,0000.0,0003.76,0010.91,0002.50
2023-04-12 18:48:00,,0823.4,5.01,0.00,30.2,28.4,00.0,38.5,31.7,09.0,0000.0,0003.75,0011.90,0002.51
2023-04-12 18:49:00,,0823.3,5.01,0.00,30.2,28.5,00.0,38.5,31.7,09.0,0000.0,0003.77,0011.90,0002.53
2023-04-12 18:50:00,,0823.3,5.00,0.00,30.2,28.6,00.0,38.5,31.8,08.9,0000.0,0003.78,0011.78,0002.56
2023-04-12 18:51:00,,0823.3,5.00,0.00,30.2,28.7,00.0,38.6,31.8,09.1,0000.0,0003.76,0011.58,0002.56
2023-04-12 18:52:00,,0823.3,5.00,0.00,30.2,28.8,00.0,38.6,31.8,09.1,0000.0,0003.73,0011.74,0002.58
2023-04-12 18:53:00,,0823.3,5.00,0.00,30.2,28.8,00.0,38.6,31.8,09.2,0000.0,0003.74,0012.53,0002.58
2023-04-12 18:54:00,,0823.3,5.00,0.00,30.3,28.9,00.0,38.6,31.9,09.2,0000.0,0003.73,0012.98,0002.57
2023-04-12 18:55:00,,0823.3,5.00,0.00,30.3,28.9,00.0,38.6,31.9,09.0,0000.0,0003.69,0012.59,0002.57
2023-04-12 18:56:00,,0823.3,5.00,0.00,30.3,29.0,00.0,38.6,32.0,09.0,0000.0,0003.66,0012.04,0002.57
2023-04-12 18:57:00,,0823.3,5.00,0.00,30.4,29.0,00.0,38.6,32.0,09.0,0000.0,0003.70,0013.17,0002.59
2023-04-12 18:58:00,,0823.3,5.00,0.00,30.4,29.0,00.0,38.7,32.0,09.2,0000.0,0003.68,0012.91,0002.59
2023-04-12 18:59:00,,0823.3,4.99,0.00,30.4,29.1,00.0,38.7,32.0,09.2,0000.0,0003.72,0012.35,0002.59
